Location: Unspecified
(0.0000°N, 0.0000°E)
Time: 14:22:43
(UTC+00:00)

ITUPSAT 1 - Pass Details

Date: 15 December 2017
Orbit: 702 x 714 km, 98.6° (Epoch: 23 April)

Event Time Altitude Azimuth Distance (km) Brightness Sun altitude
Rises 03:05:33 0° 167° (SSE) 3,102 ? -38.3°
Reaches altitude 10° 03:07:48 10° 166° (SSE) 2,179 ? -37.8°
Enters shadow 03:08:17 13° 166° (SSE) 1,985 ? -37.7°
